SCP
0 0 0 0 0 0 0 0 0 0 0 0 0 0 0 0 0 0 0 0 0 0 0 0 0 0 0 0 0 0 0 0 0 0 0 0 0 0 0 0 0 0 0
0 0 0 0 0 0 0 0 0 0 0 0 0 0 0 0 0 0 0 0 0 0 0 0 0 0 0 0 0 0 0 0 0 0 0 0 0 0 0 0 0 0 0
0 0 0 0 0 0 0 0 0 0 0 0 0 0 0 0 0 0 0 0 0 0 0 0 0 0 0 0 0 0 0 0 0 0 0 0 0 0 0 0 0 0 0
0 0 0 0 0 0 0 0 0 0 0 0 0 0 0 0 0 0 0 0 0 0 0 0 0 0 0 0 0 0 0 0 0 0 0 0 0 0 0 0 0 0 0
0 0 0 0 0 0 0 0 0 0 0 0 0 0 0 0 0 0 0 0 0 0 0 0 0 0 0 0 0 0 0 0 0 0 0 0 0 0 0 0 0 0 0
0 0 0 0 0 0 0 0 0 0 0 0 0 0 0 0 0 0 0 0 0 0 0 0 0 0 0 0 0 0 0 0 0 0 0 0 0 0 0 0 0 0 0
0 0 0 0 0 0 0 0 0 0 0 0 0 0 0 0 0 0 0 0 0 0 0 0 0 0 0 0 0 0 0 0 0 0 0 0 0 0 0 0 0 0 0
0 0 0 0 0 0 0 0 0 0 0 0 0 0 0 0 0 0 0 0 0 0 0 0 0 0 0 0 0 0 0 0 0 0 0 0 0 0 0 0 0 0 0
0 0 0 0 0 0 0 0 0 0 0 0 0 0 0 0 0 0 0 0 0 0 0 0 0 0 0 0 0 0 0 0 0 0 0 0 0 0 0 0 0 0 0
0 0 0 0 0 0 0 0 0 0 0 0 0 0 0 0 0 0 0 0 0 0 0 0 0 0 0 0 0 0 0 0 0 0 0 0 0 0 0 0 0 0 0
0 0 0 0 0 0 0 0 0 0 0 0 0 0 0 0 0 0 0 0 0 0 0 0 0 0 0 0 0 0 0 0 0 0 0 0 0 0 0 0 0 0 0
0 0 0 0 0 0 0 0 0 0 0 0 0 0 0 0 0 0 0 0 0 0 0 0 0 0 0 0 0 0 0 0 0 0 0 0 0 0 0 0 0 0 0
0 0 0 0 0 0 0 0 0 0 0 0 0 0 0 0 0 0 0 0 0 0 0 0 0 0 0 0 0 0 0 0 0 0 0 0 0 0 0 0 0 0 0
0 0 0 0 0 0 0 0 0 0 0 0 0 0 0 0 0 0 0 0 0 0 0 0 0 0 0 0 0 0 -0 0 -0 0 0 0 0 0 0 0 0 0 0
0 0 0 0 0 0 0 0 0 0 0 0 0 0 0 0 0 0 0 0 0 0 0 0 0 0 0 -0 0 0 -0 -0 0 0 0 0 0 0 0 0 0 0 0
0 0 0 0 0 0 0 0 0 0 0 0 0 0 0 0 0 0 0 0 0 0 0 0 0 0 0 0 0 0 0 0 0 0 -0 -0 0 0 0 0 0 0 0
0 0 0 0 0 0 0 0 0 0 0 0 0 0 0 0 0 0 0 0 0 0 0 0 0 0 0 0 0 0 0 0 0 0 0 0 0 0 0 -0 -0 0 0
0 0 0 0 0 0 0 0 0 0 0 0 0 0 0 0 0 0 0 0 0 0 0 0 0 0 0 0 0 0 -0 -0 -0 -0 -0 0 0 0 0 0 0 -0 0
0 0 0 0 0 0 0 0 0 0 0 0 0 0 0 0 0 0 0 0 0 0 0 0 0 0 0 0 0 -0 -0 -0 -0 -0 -0 -0 -0 -0 -0 -0 0 0 0
0 0 0 0 0 0 0 0 0 0 0 0 0 0 0 0 0 0 0 0 0 0 0 0 0 0 -0 -0 -0 -0 -0 -0 -0 0 -0 -0 -0 -0 -0 -0 -0 -0 -0
0 0 0 0 0 0 0 0 0 0 0 0 0 0 0 0 0 0 0 0 0 0 0 0 0 -0 -0 -0 -0 -0 -0 -0 -0 -0 0 0 0 0 0 -0 -0 -0 -0
0 0 0 0 0 0 0 0 0 0 0 0 0 0 0 0 0 0 0 0 0 0 0 0 0 0 -0 -0 -0 -0 -0 -0 -0 -0 0 0 0 0 0 0 -0 -0 -0
0 0 0 0 0 0 0 0 0 0 0 0 0 0 0 0 0 0 0 0 0 0 0 0 0 0 0 0 0 0 0 0 0 0 0 0 0 0 0 0 0 -0 -0
0 0 0 0 0 0 0 0 0 0 0 0 0 0 0 0 0 0 0 0 0 0 0 0 0 0 0 0 0 0 0 0 0 0 0 0 0 0 0 0 0 -0 -0
0 0 0 0 0 0 0 0 0 0 0 0 0 0 0 0 0 0 0 0 0 0 0 0 0 0 0 0 0 0 0 0 0 0 0 0 0 0 0 0 0 0 0
0 0 0 0 0 0 0 0 0 0 0 0 0 0 0 0 0 0 0 0 0 0 0 0 0 0 0 0 0 0 0 0 0 0 0 0 0 0 0 0 0 0 0
Wind_Speed_500mb
48 43 39 34 29 25 23 21 20 22 25 26 28 29 29 29 29 28 27 25 24 24 22 22 22 20 18 16 11 15 17 19 23 26 27 25 28 31 40 44 41 39 38
53 49 45 40 35 32 28 24 22 20 22 24 26 26 25 27 27 26 25 25 23 22 20 18 18 18 15 12 7 6 4 8 2 9 19 23 23 22 23 30 39 38 40
61 56 51 47 42 38 33 28 24 22 23 25 27 27 28 28 28 27 23 21 17 18 17 13 12 10 2 11 9 5 3 14 12 11 20 23 21 18 8 16 27 32 37
66 62 59 52 47 41 36 32 27 24 23 23 25 27 29 30 30 25 20 17 14 13 12 11 11 10 10 10 7 3 7 18 7 13 21 19 25 27 32 36 32 30 33
71 68 63 57 52 48 44 38 33 29 25 25 26 27 27 28 26 21 16 15 13 10 10 11 11 8 8 10 11 11 6 12 15 21 17 14 27 29 28 28 32 33 37
76 73 69 65 59 56 49 43 39 33 26 25 25 26 26 25 20 15 11 11 12 12 11 10 8 13 19 20 19 21 21 21 23 25 27 31 33 31 25 23 28 39 39
82 79 76 70 67 59 51 48 46 37 30 27 23 23 23 19 12 11 9 2 1 3 9 14 18 18 17 18 20 21 22 23 24 27 29 31 32 37 39 38 39 41 42
87 84 81 76 69 63 62 57 51 44 38 30 20 21 6 15 17 17 18 17 7 9 15 13 12 14 12 11 11 11 13 15 18 23 27 29 32 36 40 43 46 48 52
90 89 83 77 72 68 65 60 56 50 45 33 23 14 6 7 9 19 17 15 18 16 17 14 13 12 11 11 10 8 12 21 26 28 32 35 36 38 40 43 45 46 46
95 92 86 80 76 72 68 64 60 55 49 40 29 21 19 22 12 10 15 14 20 18 15 16 13 12 11 10 10 13 29 33 38 42 45 46 46 46 45 46 47 48 48
96 93 88 84 80 76 72 69 67 62 54 49 39 28 23 24 27 26 24 19 19 17 13 11 9 13 13 13 11 28 36 40 43 45 47 50 54 56 57 58 57 56 54
95 93 90 87 84 82 80 75 70 64 58 52 44 35 29 27 29 30 30 28 24 16 19 19 12 9 17 19 32 41 45 49 52 53 55 56 58 60 62 63 64 63 58
97 97 95 96 92 87 82 77 74 70 66 59 49 42 37 34 32 33 33 30 25 21 12 12 16 17 21 34 44 48 54 58 59 58 57 58 60 65 68 69 69 67 65
84 91 96 95 90 86 82 81 78 74 68 63 58 50 42 37 35 32 32 30 27 23 21 12 16 15 30 37 45 49 55 60 63 64 63 62 64 66 68 71 72 71 67
80 82 87 92 93 90 88 86 84 80 76 69 63 55 48 42 39 38 36 33 29 21 21 17 18 29 37 41 47 53 59 61 65 67 65 66 68 69 71 73 73 73 73
81 82 81 85 91 94 91 91 89 85 81 77 71 65 57 49 45 41 40 36 34 31 25 24 27 32 35 38 45 51 55 59 62 68 71 69 68 69 71 72 76 78 76
84 85 84 82 86 93 96 96 93 89 87 82 78 73 63 55 48 43 44 42 40 37 34 33 34 31 33 40 48 54 57 58 61 64 67 68 69 73 76 78 79 77 78
90 86 86 86 86 89 97 100 98 95 95 91 85 79 71 63 55 50 47 47 43 41 39 36 37 37 39 43 47 55 63 69 70 70 67 66 68 69 73 74 78 78 78
97 96 96 94 93 93 98 103 102 100 99 96 90 85 77 70 61 55 53 49 46 43 40 37 39 39 46 50 54 59 65 71 77 79 76 70 77 80 83 77 80 83 82
105 105 105 102 100 95 98 102 105 106 101 101 96 91 82 72 64 58 56 51 46 40 42 40 38 41 47 49 59 67 75 75 80 80 73 79 92 96 98 90 93 90 91
99 106 109 108 105 103 103 107 110 110 108 107 103 95 87 75 69 62 59 53 47 43 41 38 36 40 46 54 61 67 73 79 82 77 79 96 97 102 99 97 97 95 93
94 101 109 108 111 114 110 106 107 111 113 111 108 101 90 81 76 69 63 56 50 45 41 39 37 41 46 50 54 61 67 76 85 75 96 104 98 105 101 97 97 99 95
85 98 105 109 109 117 110 106 109 110 113 116 110 103 95 87 79 70 63 57 52 45 47 44 39 38 43 42 50 57 62 69 75 79 89 111 101 105 100 106 105 106 106
80 89 96 101 102 112 105 104 108 112 115 112 109 105 98 90 83 72 63 58 53 47 42 37 40 34 36 37 44 50 58 71 78 75 75 106 96 105 109 113 109 103 105
75 85 86 89 102 106 99 103 108 115 115 114 113 108 97 90 77 71 67 59 54 48 41 38 39 32 28 30 36 46 51 65 83 83 76 70 98 114 119 113 104 110 112
62 71 76 84 92 98 98 103 110 112 113 116 111 107 100 88 78 75 70 62 58 47 42 38 33 27 27 31 33 40 48 58 66 79 42 68 94 95 91 102 109 118 109
Wind_Direction_500mb
226 225 225 228 233 242 252 263 280 297 308 318 323 325 325 324 323 319 314 304 293 284 277 274 272 274 278 278 287 280 276 276 280 285 285 282 269 265 260 257 256 255 256
227 227 228 228 229 234 242 255 270 284 300 313 316 319 317 316 317 314 308 299 290 281 274 268 262 264 274 283 4 30 16 45 285 270 276 285 283 279 278 270 262 259 258
227 228 228 227 227 229 236 243 259 277 295 309 315 316 317 319 320 315 304 293 284 279 275 268 261 267 302 61 56 5 312 271 290 308 275 280 283 283 318 316 271 264 262
228 229 229 227 228 231 235 240 251 266 285 303 311 313 312 312 315 306 294 279 274 268 266 274 271 265 260 242 258 269 313 29 45 289 290 299 287 282 275 270 273 269 261
229 230 231 229 229 230 231 236 241 254 274 296 308 312 312 310 306 294 274 255 253 274 272 270 277 275 285 284 288 304 332 265 276 289 313 300 286 286 285 286 287 279 267
229 230 230 229 229 228 230 234 239 250 264 284 301 310 315 309 297 278 267 260 264 272 268 265 275 297 300 299 294 292 299 295 297 299 292 294 295 299 296 289 279 278 281
230 230 230 228 228 229 233 233 237 243 255 272 290 308 314 301 271 230 208 293 239 317 311 300 300 305 303 301 301 304 306 305 308 311 308 306 298 293 294 289 283 287 289
229 230 229 229 229 228 228 231 235 238 247 255 274 301 265 287 259 245 254 276 227 342 331 319 321 317 317 310 307 315 314 312 317 316 310 305 301 297 295 295 295 290 288
228 229 229 229 229 229 231 233 234 236 241 244 257 271 261 218 213 259 246 234 261 305 318 313 321 328 336 344 352 7 13 344 333 324 318 310 306 301 295 292 291 287 285
227 228 227 228 229 230 230 232 233 234 239 242 242 255 269 265 255 256 270 245 265 308 313 326 333 338 346 2 350 12 344 335 330 324 319 317 315 311 306 303 300 297 292
227 227 227 226 227 229 230 231 231 233 235 241 244 243 251 262 262 255 263 260 275 303 325 355 359 1 356 352 354 339 336 335 331 328 324 319 313 310 309 309 308 304 302
229 228 227 228 229 229 229 230 230 232 236 237 239 244 251 256 266 264 262 272 284 290 315 332 350 353 355 347 343 347 343 343 340 335 330 326 323 322 320 319 315 311 307
231 230 229 227 227 228 228 229 230 232 234 236 241 246 251 260 266 266 265 270 277 286 270 289 317 330 340 341 340 343 343 342 340 337 333 330 327 325 324 322 319 317 313
237 235 233 232 231 230 229 229 230 232 232 234 236 240 247 255 261 261 258 260 270 279 287 281 313 324 334 336 337 338 338 339 337 336 333 330 327 323 322 320 318 315 311
241 239 236 235 234 230 229 230 230 230 231 233 235 239 246 255 262 263 261 260 257 259 278 286 303 320 328 330 332 333 333 334 333 331 328 326 323 322 320 318 316 313 310
243 241 237 235 235 233 231 229 229 228 229 231 234 239 244 251 256 260 261 259 260 254 251 263 281 301 308 316 321 324 324 325 325 324 324 324 323 318 315 316 317 315 311
246 242 239 235 233 233 232 231 230 229 229 231 233 237 241 246 253 257 261 262 262 259 262 271 284 297 309 317 321 321 321 321 319 319 320 321 321 320 320 321 320 319 314
249 246 244 240 235 232 232 232 232 230 230 229 232 235 239 244 247 250 254 258 258 260 269 279 290 303 312 318 322 324 326 329 331 331 330 328 323 317 317 324 323 319 317
251 246 243 242 237 231 230 231 232 233 232 232 232 234 237 240 245 248 250 252 253 257 267 277 290 304 316 322 324 329 331 329 330 332 334 331 329 328 328 331 323 321 317
256 251 249 244 240 234 231 231 231 231 231 232 232 232 233 238 243 247 250 249 245 255 268 278 291 306 315 323 329 329 326 328 328 329 333 329 331 330 331 332 327 324 321
262 257 252 248 243 238 233 229 229 229 229 230 230 230 231 233 239 243 244 244 243 250 260 272 288 303 312 323 327 328 325 325 324 333 330 326 328 326 329 327 323 324 322
266 259 254 249 245 241 238 233 231 229 229 229 228 227 228 231 235 238 240 239 243 250 258 265 280 300 313 319 321 322 323 324 328 335 326 320 325 323 327 323 321 322 318
270 262 256 251 247 244 240 236 232 230 229 228 227 227 227 229 231 233 235 236 241 248 252 271 287 298 303 313 314 315 322 320 318 324 322 315 323 322 324 318 319 319 317
269 263 257 252 247 243 240 236 235 232 228 228 228 228 228 229 229 230 230 232 235 241 255 268 279 284 291 301 314 317 317 312 311 315 322 313 324 321 319 316 317 317 315
274 262 257 252 244 241 237 232 233 233 228 224 224 225 227 227 226 226 225 225 232 238 247 259 267 281 300 303 304 308 312 311 312 316 324 314 323 320 317 317 319 321 315
280 268 261 254 248 243 236 231 230 232 228 223 221 223 224 224 223 226 226 227 230 234 238 247 258 271 287 294 299 305 307 307 305 311 312 314 317 323 317 312 313 319 316
Wind_Speed_850mb
48 43 39 34 29 25 23 21 20 22 25 26 28 29 29 29 29 28 27 25 24 24 22 22 22 20 18 16 11 15 17 19 23 26 27 25 28 31 40 44 41 39 38
53 49 45 40 35 32 28 24 22 20 22 24 26 26 25 27 27 26 25 25 23 22 20 18 18 18 15 12 7 6 4 8 2 9 19 23 23 22 23 30 39 38 40
61 56 51 47 42 38 33 28 24 22 23 25 27 27 28 28 28 27 23 21 17 18 17 13 12 10 2 11 9 5 3 14 12 11 20 23 21 18 8 16 27 32 37
66 62 59 52 47 41 36 32 27 24 23 23 25 27 29 30 30 25 20 17 14 13 12 11 11 10 10 10 7 3 7 18 7 13 21 19 25 27 32 36 32 30 33
71 68 63 57 52 48 44 38 33 29 25 25 26 27 27 28 26 21 16 15 13 10 10 11 11 8 8 10 11 11 6 12 15 21 17 14 27 29 28 28 32 33 37
76 73 69 65 59 56 49 43 39 33 26 25 25 26 26 25 20 15 11 11 12 12 11 10 8 13 19 20 19 21 21 21 23 25 27 31 33 31 25 23 28 39 39
82 79 76 70 67 59 51 48 46 37 30 27 23 23 23 19 12 11 9 2 1 3 9 14 18 18 17 18 20 21 22 23 24 27 29 31 32 37 39 38 39 41 42
87 84 81 76 69 63 62 57 51 44 38 30 20 21 6 15 17 17 18 17 7 9 15 13 12 14 12 11 11 11 13 15 18 23 27 29 32 36 40 43 46 48 52
90 89 83 77 72 68 65 60 56 50 45 33 23 14 6 7 9 19 17 15 18 16 17 14 13 12 11 11 10 8 12 21 26 28 32 35 36 38 40 43 45 46 46
95 92 86 80 76 72 68 64 60 55 49 40 29 21 19 22 12 10 15 14 20 18 15 16 13 12 11 10 10 13 29 33 38 42 45 46 46 46 45 46 47 48 48
96 93 88 84 80 76 72 69 67 62 54 49 39 28 23 24 27 26 24 19 19 17 13 11 9 13 13 13 11 28 36 40 43 45 47 50 54 56 57 58 57 56 54
95 93 90 87 84 82 80 75 70 64 58 52 44 35 29 27 29 30 30 28 24 16 19 19 12 9 17 19 32 41 45 49 52 53 55 56 58 60 62 63 64 63 58
97 97 95 96 92 87 82 77 74 70 66 59 49 42 37 34 32 33 33 30 25 21 12 12 16 17 21 34 44 48 54 58 59 58 57 58 60 65 68 69 69 67 65
84 91 96 95 90 86 82 81 78 74 68 63 58 50 42 37 35 32 32 30 27 23 21 12 16 15 30 37 45 49 55 60 63 64 63 62 64 66 68 71 72 71 67
80 82 87 92 93 90 88 86 84 80 76 69 63 55 48 42 39 38 36 33 29 21 21 17 18 29 37 41 47 53 59 61 65 67 65 66 68 69 71 73 73 73 73
81 82 81 85 91 94 91 91 89 85 81 77 71 65 57 49 45 41 40 36 34 31 25 24 27 32 35 38 45 51 55 59 62 68 71 69 68 69 71 72 76 78 76
84 85 84 82 86 93 96 96 93 89 87 82 78 73 63 55 48 43 44 42 40 37 34 33 34 31 33 40 48 54 57 58 61 64 67 68 69 73 76 78 79 77 78
90 86 86 86 86 89 97 100 98 95 95 91 85 79 71 63 55 50 47 47 43 41 39 36 37 37 39 43 47 55 63 69 70 70 67 66 68 69 73 74 78 78 78
97 96 96 94 93 93 98 103 102 100 99 96 90 85 77 70 61 55 53 49 46 43 40 37 39 39 46 50 54 59 65 71 77 79 76 70 77 80 83 77 80 83 82
105 105 105 102 100 95 98 102 105 106 101 101 96 91 82 72 64 58 56 51 46 40 42 40 38 41 47 49 59 67 75 75 80 80 73 79 92 96 98 90 93 90 91
99 106 109 108 105 103 103 107 110 110 108 107 103 95 87 75 69 62 59 53 47 43 41 38 36 40 46 54 61 67 73 79 82 77 79 96 97 102 99 97 97 95 93
94 101 109 108 111 114 110 106 107 111 113 111 108 101 90 81 76 69 63 56 50 45 41 39 37 41 46 50 54 61 67 76 85 75 96 104 98 105 101 97 97 99 95
85 98 105 109 109 117 110 106 109 110 113 116 110 103 95 87 79 70 63 57 52 45 47 44 39 38 43 42 50 57 62 69 75 79 89 111 101 105 100 106 105 106 106
80 89 96 101 102 112 105 104 108 112 115 112 109 105 98 90 83 72 63 58 53 47 42 37 40 34 36 37 44 50 58 71 78 75 75 106 96 105 109 113 109 103 105
75 85 86 89 102 106 99 103 108 115 115 114 113 108 97 90 77 71 67 59 54 48 41 38 39 32 28 30 36 46 51 65 83 83 76 70 98 114 119 113 104 110 112
62 71 76 84 92 98 98 103 110 112 113 116 111 107 100 88 78 75 70 62 58 47 42 38 33 27 27 31 33 40 48 58 66 79 42 68 94 95 91 102 109 118 109
Wind_Direction_850mb
226 225 225 228 233 242 252 263 280 297 308 318 323 325 325 324 323 319 314 304 293 284 277 274 272 274 278 278 287 280 276 276 280 285 285 282 269 265 260 257 256 255 256
227 227 228 228 229 234 242 255 270 284 300 313 316 319 317 316 317 314 308 299 290 281 274 268 262 264 274 283 4 30 16 45 285 270 276 285 283 279 278 270 262 259 258
227 228 228 227 227 229 236 243 259 277 295 309 315 316 317 319 320 315 304 293 284 279 275 268 261 267 302 61 56 5 312 271 290 308 275 280 283 283 318 316 271 264 262
228 229 229 227 228 231 235 240 251 266 285 303 311 313 312 312 315 306 294 279 274 268 266 274 271 265 260 242 258 269 313 29 45 289 290 299 287 282 275 270 273 269 261
229 230 231 229 229 230 231 236 241 254 274 296 308 312 312 310 306 294 274 255 253 274 272 270 277 275 285 284 288 304 332 265 276 289 313 300 286 286 285 286 287 279 267
229 230 230 229 229 228 230 234 239 250 264 284 301 310 315 309 297 278 267 260 264 272 268 265 275 297 300 299 294 292 299 295 297 299 292 294 295 299 296 289 279 278 281
230 230 230 228 228 229 233 233 237 243 255 272 290 308 314 301 271 230 208 293 239 317 311 300 300 305 303 301 301 304 306 305 308 311 308 306 298 293 294 289 283 287 289
229 230 229 229 229 228 228 231 235 238 247 255 274 301 265 287 259 245 254 276 227 342 331 319 321 317 317 310 307 315 314 312 317 316 310 305 301 297 295 295 295 290 288
228 229 229 229 229 229 231 233 234 236 241 244 257 271 261 218 213 259 246 234 261 305 318 313 321 328 336 344 352 7 13 344 333 324 318 310 306 301 295 292 291 287 285
227 228 227 228 229 230 230 232 233 234 239 242 242 255 269 265 255 256 270 245 265 308 313 326 333 338 346 2 350 12 344 335 330 324 319 317 315 311 306 303 300 297 292
227 227 227 226 227 229 230 231 231 233 235 241 244 243 251 262 262 255 263 260 275 303 325 355 359 1 356 352 354 339 336 335 331 328 324 319 313 310 309 309 308 304 302
229 228 227 228 229 229 229 230 230 232 236 237 239 244 251 256 266 264 262 272 284 290 315 332 350 353 355 347 343 347 343 343 340 335 330 326 323 322 320 319 315 311 307
231 230 229 227 227 228 228 229 230 232 234 236 241 246 251 260 266 266 265 270 277 286 270 289 317 330 340 341 340 343 343 342 340 337 333 330 327 325 324 322 319 317 313
237 235 233 232 231 230 229 229 230 232 232 234 236 240 247 255 261 261 258 260 270 279 287 281 313 324 334 336 337 338 338 339 337 336 333 330 327 323 322 320 318 315 311
241 239 236 235 234 230 229 230 230 230 231 233 235 239 246 255 262 263 261 260 257 259 278 286 303 320 328 330 332 333 333 334 333 331 328 326 323 322 320 318 316 313 310
243 241 237 235 235 233 231 229 229 228 229 231 234 239 244 251 256 260 261 259 260 254 251 263 281 301 308 316 321 324 324 325 325 324 324 324 323 318 315 316 317 315 311
246 242 239 235 233 233 232 231 230 229 229 231 233 237 241 246 253 257 261 262 262 259 262 271 284 297 309 317 321 321 321 321 319 319 320 321 321 320 320 321 320 319 314
249 246 244 240 235 232 232 232 232 230 230 229 232 235 239 244 247 250 254 258 258 260 269 279 290 303 312 318 322 324 326 329 331 331 330 328 323 317 317 324 323 319 317
251 246 243 242 237 231 230 231 232 233 232 232 232 234 237 240 245 248 250 252 253 257 267 277 290 304 316 322 324 329 331 329 330 332 334 331 329 328 328 331 323 321 317
256 251 249 244 240 234 231 231 231 231 231 232 232 232 233 238 243 247 250 249 245 255 268 278 291 306 315 323 329 329 326 328 328 329 333 329 331 330 331 332 327 324 321
262 257 252 248 243 238 233 229 229 229 229 230 230 230 231 233 239 243 244 244 243 250 260 272 288 303 312 323 327 328 325 325 324 333 330 326 328 326 329 327 323 324 322
266 259 254 249 245 241 238 233 231 229 229 229 228 227 228 231 235 238 240 239 243 250 258 265 280 300 313 319 321 322 323 324 328 335 326 320 325 323 327 323 321 322 318
270 262 256 251 247 244 240 236 232 230 229 228 227 227 227 229 231 233 235 236 241 248 252 271 287 298 303 313 314 315 322 320 318 324 322 315 323 322 324 318 319 319 317
269 263 257 252 247 243 240 236 235 232 228 228 228 228 228 229 229 230 230 232 235 241 255 268 279 284 291 301 314 317 317 312 311 315 322 313 324 321 319 316 317 317 315
274 262 257 252 244 241 237 232 233 233 228 224 224 225 227 227 226 226 225 225 232 238 247 259 267 281 300 303 304 308 312 311 312 316 324 314 323 320 317 317 319 321 315
280 268 261 254 248 243 236 231 230 232 228 223 221 223 224 224 223 226 226 227 230 234 238 247 258 271 287 294 299 305 307 307 305 311 312 314 317 323 317 312 313 319 316